Temperature
15 15 16 16 16 17 19 20 22 21 21 21 21 22 21 20 20 17 16 15 15 15 16 16 16 15 15 15 15 15 15 15 15 15 15 15 15 15 15 15 15 15 15 15 15 15 15 15 15
15 15 16 16 16 18 19 20 20 20 20 20 20 21 20 19 18 16 15 15 15 15 15 15 15 15 15 15 15 15 15 15 15 15 15 15 15 15 15 15 15 15 15 15 15 15 15 15 15
15 15 16 17 17 18 19 20 20 20 20 20 20 20 19 18 17 16 15 15 15 15 15 15 15 15 15 15 15 15 15 15 15 15 15 15 15 15 15 15 15 15 15 15 15 15 15 15 15
14 15 16 16 17 18 19 19 19 19 19 19 19 18 17 16 16 15 15 14 14 14 14 14 14 14 14 14 15 15 14 15 15 15 15 15 15 15 15 15 15 15 15 15 15 15 15 15 15
14 16 16 16 17 18 18 19 19 18 19 18 18 17 16 15 15 15 14 14 14 14 14 14 14 14 14 14 14 14 15 15 15 15 15 15 15 15 15 15 15 15 15 15 15 15 15 15 14
15 16 16 16 17 18 18 18 18 18 18 17 17 16 15 15 14 14 14 13 13 13 13 13 13 14 14 14 14 14 14 14 14 14 14 15 15 15 15 15 15 15 15 15 15 15 15 14 14
15 15 16 17 17 17 18 17 17 17 17 16 16 16 15 14 13 13 13 13 13 13 13 13 13 13 13 13 13 13 14 14 14 14 14 14 14 14 14 14 14 14 15 15 14 15 14 14 14
14 15 16 16 16 17 16 16 16 16 15 15 15 15 14 13 13 13 12 12 12 12 12 12 12 12 13 13 13 13 13 14 14 14 14 14 14 14 14 14 14 14 14 14 14 14 14 14 14
14 13 14 16 16 16 16 15 15 15 14 14 14 14 13 13 12 12 12 12 12 12 12 12 12 12 12 12 12 12 13 13 13 13 13 13 13 13 13 13 13 14 14 14 14 13 13 13 13
13 12 14 15 15 15 14 14 14 14 14 13 13 13 12 12 12 11 11 11 11 11 11 11 11 11 12 12 12 12 12 12 13 13 13 13 13 13 13 13 13 13 13 13 13 13 13 13 13
13 13 14 14 13 13 13 13 13 13 13 13 13 12 12 11 11 11 11 11 11 10 11 11 11 11 11 11 11 12 12 12 12 12 12 12 12 12 12 12 12 12 12 12 12 12 12 12 12
13 13 13 13 12 12 12 12 12 12 12 12 12 12 11 11 11 10 10 10 10 10 10 10 10 10 11 11 11 11 11 11 12 12 12 12 12 12 12 12 12 12 12 12 12 12 12 12 12
12 12 12 12 11 11 11 11 11 11 12 12 12 11 11 11 10 10 10 10 10 9 10 10 10 10 10 10 10 11 11 11 11 11 11 11 11 11 11 11 11 11 11 12 12 12 11 11 11
12 12 11 11 11 11 11 11 11 11 11 11 11 11 11 10 10 10 9 9 9 9 9 9 9 9 10 10 10 10 10 10 10 11 11 11 11 11 11 11 11 11 11 11 11 11 11 11 11
11 11 11 12 12 11 11 10 10 11 11 11 11 11 10 10 10 9 9 9 9 9 9 9 9 9 9 9 9 9 9 9 10 10 10 10 11 11 11 11 11 11 11 11 11 11 11 10 10
11 11 10 12 12 11 10 9 11 11 11 11 11 11 10 10 9 9 8 8 8 8 8 8 8 8 8 9 9 9 9 9 9 9 10 10 10 10 10 10 10 10 10 10 10 10 10 10 10
10 10 11 11 12 12 10 9 11 11 11 11 10 10 10 9 9 8 8 8 8 8 8 8 8 8 8 8 8 8 8 8 9 9 9 9 9 10 10 10 10 10 10 10 10 10 10 10 10
9 10 10 11 11 11 10 10 10 11 10 10 10 10 9 9 8 8 8 8 8 8 7 8 8 8 8 8 8 8 8 8 8 8 9 9 9 9 9 9 10 10 10 9 9 9 9 9 9
10 10 10 10 11 10 9 10 10 10 10 9 9 9 9 8 8 7 7 7 7 7 7 7 7 7 7 7 7 7 7 7 8 8 8 8 8 9 9 9 9 9 9 9 9 9 9 9 9
10 9 9 10 10 10 9 9 10 10 9 9 9 9 8 8 7 7 7 7 6 6 7 7 7 7 7 7 7 7 7 7 7 7 8 8 8 8 8 8 9 9 8 8 8 8 8 8 8
9 9 8 8 9 9 8 8 9 10 10 9 9 8 8 7 7 7 6 6 6 6 6 6 6 6 6 6 6 6 7 7 7 7 7 7 7 7 8 8 8 8 8 8 8 8 8 8 8
7 9 8 8 7 7 8 7 8 8 8 8 8 8 7 7 7 6 6 6 6 6 6 6 6 6 6 6 6 6 6 6 6 6 6 7 7 7 7 7 8 7 7 7 7 7 8 8 8
7 8 8 8 7 6 7 7 7 8 8 7 7 7 7 6 6 6 6 5 5 5 5 5 5 5 5 5 5 5 5 5 6 6 6 6 6 6 7 7 7 7 7 7 7 7 7 7 7
7 7 7 7 6 6 7 7 7 7 8 7 7 7 6 6 6 5 5 5 5 5 5 5 5 5 5 5 5 5 5 5 5 5 5 5 5 6 6 6 6 7 7 7 7 7 7 7 7
6 6 6 6 6 6 8 7 7 7 7 7 6 6 5 5 5 5 4 4 5 5 5 5 4 4 4 4 4 4 4 4 5 5 5 5 5 5 5 5 6 6 6 6 6 6 6 6 6
6 6 5 5 6 7 8 7 7 7 6 6 6 5 5 4 4 4 4 4 4 4 4 4 4 4 4 4 4 4 4 4 4 4 4 4 5 5 5 5 5 5 5 5 5 6 6 6 6
6 5 6 5 4 5 7 7 7 6 6 5 5 4 4 4 4 3 4 4 4 4 4 4 4 4 4 3 3 3 3 4 4 4 4 4 4 4 4 4 4 5 5 5 5 5 5 5 5
6 5 4 4 5 5 7 7 6 5 5 4 4 4 4 3 3 3 3 3 3 3 3 3 3 3 3 3 3 3 3 3 3 3 3 3 3 3 3 3 4 4 4 4 4 4 5 5 5
4 4 4 4 4 5 5 6 6 5 4 4 4 4 3 3 3 3 3 3 3 3 3 3 3 3 3 3 2 2 2 2 2 2 2 3 3 3 3 3 3 3 4 4 4 4 4 4 4
4 4 3 3 3 4 4 5 6 5 4 4 4 3 3 3 3 2 2 2 2 2 2 2 2 2 2 2 2 2 2 2 2 2 2 2 2 2 2 3 3 3 3 3 3 3 4 4 4
Wind_Speed
13 11 6 2 3 5 7 4 2 0 1 3 4 3 3 4 3 5 4 5 7 7 8 7 6 6 5 5 6 5 5 5 4 4 4 5 6 6 6 6 7 7 7 7 8 8 8 8 9
11 7 3 3 4 7 5 5 3 1 2 3 3 3 2 3 5 6 4 5 6 7 7 6 6 5 5 4 5 5 4 5 4 3 4 5 5 5 5 6 6 6 6 6 7 7 8 8 8
9 6 3 4 5 6 2 1 2 2 3 2 2 2 2 3 5 4 4 4 5 6 7 6 6 5 4 3 3 4 3 3 3 3 3 4 5 5 5 6 6 6 6 6 7 7 7 7 7
4 3 4 5 8 5 2 1 3 2 2 2 2 0 3 5 4 4 4 3 4 5 6 6 5 4 3 3 2 2 2 2 3 3 3 4 4 4 5 5 6 6 6 6 6 6 6 6 6
3 3 5 6 8 5 0 2 2 0 1 1 3 2 2 4 7 6 3 3 3 4 6 6 4 3 2 2 1 1 1 2 2 2 2 3 4 5 5 5 6 6 7 6 6 6 6 5 5
3 4 5 8 7 5 2 0 3 2 1 1 2 3 1 4 6 4 4 3 4 4 5 5 3 3 2 1 1 1 0 2 2 2 2 3 4 5 5 5 6 5 6 6 5 6 6 5 5
3 3 5 6 5 4 1 1 2 2 2 2 3 3 1 4 4 3 3 3 4 4 4 4 3 2 1 0 1 1 2 3 3 3 2 2 3 4 5 5 5 5 5 5 5 6 6 6 5
3 3 5 5 6 4 1 1 2 3 2 3 3 2 1 3 4 3 3 2 3 3 3 2 2 2 1 0 1 1 2 4 4 3 3 2 3 4 5 5 5 5 4 5 6 6 5 5 5
3 3 5 4 3 1 1 1 1 2 1 2 2 3 3 3 3 2 2 2 2 2 1 1 1 1 1 1 0 0 2 4 4 4 3 3 3 3 4 5 5 5 4 5 6 6 6 5 5
3 4 4 2 3 2 2 2 2 2 2 3 3 1 2 2 2 2 2 2 2 1 1 1 0 0 1 1 1 0 1 3 5 4 4 3 3 3 3 4 5 5 5 5 6 6 6 5 4
3 4 3 3 4 4 3 3 2 4 5 4 3 1 2 2 2 2 3 3 2 1 2 2 1 1 1 1 1 1 1 2 3 4 4 3 3 3 3 3 4 4 5 4 5 5 5 4 3
4 4 4 3 3 4 5 4 4 6 5 3 2 1 2 3 3 3 3 3 3 1 1 2 2 2 1 1 1 1 1 2 1 3 3 2 2 2 2 2 3 3 3 4 3 3 4 4 4
5 5 4 3 3 5 5 6 6 8 6 4 3 2 3 3 3 3 3 3 2 1 1 2 2 2 1 1 1 1 1 2 2 2 3 3 2 2 2 2 2 2 2 2 2 3 3 3 3
3 3 5 5 6 5 6 8 7 8 6 5 4 4 3 3 3 3 3 3 3 2 1 1 2 2 1 1 1 1 1 2 2 2 2 2 2 2 2 3 2 2 3 2 2 3 3 2 2
4 5 7 7 7 5 4 8 8 7 5 5 5 4 3 2 2 2 3 3 3 2 1 1 2 2 2 2 2 1 1 1 2 2 2 2 3 3 2 3 3 2 2 2 1 1 2 3 2
5 5 5 4 5 4 4 8 5 3 4 5 4 4 3 3 2 2 2 3 3 2 1 1 2 3 2 2 2 2 2 2 2 2 2 3 3 3 3 3 2 2 2 1 2 2 2 2 2
5 5 5 3 4 4 6 8 4 3 5 5 4 4 3 2 2 2 2 2 2 2 2 1 1 2 2 2 2 2 2 1 2 2 2 3 3 3 3 3 2 3 2 1 2 2 2 2 2
4 5 6 5 3 5 8 10 7 4 5 5 5 4 3 2 3 2 2 2 2 2 2 1 1 1 1 1 1 1 2 2 2 2 2 2 2 2 2 2 3 3 2 2 1 2 1 2 2
7 7 8 7 5 5 9 12 9 5 4 5 5 5 3 2 2 1 2 2 2 2 2 1 1 1 1 1 1 1 2 2 2 2 1 2 2 2 2 3 3 3 3 3 3 2 1 2 2
7 7 7 6 4 6 9 12 8 6 6 4 3 3 3 3 2 1 1 1 2 2 2 2 1 1 1 1 1 2 2 2 2 1 1 2 2 2 3 3 3 3 3 3 3 3 2 2 2
7 6 6 6 9 7 7 8 5 2 2 1 1 2 2 3 3 2 2 1 2 2 2 2 2 1 1 1 1 1 1 1 1 1 1 2 3 3 2 3 3 3 3 4 4 4 4 4 3
6 4 6 7 6 4 3 5 4 3 2 2 1 1 2 3 3 2 2 2 2 2 2 2 2 1 1 1 1 1 2 2 3 2 2 2 2 2 2 2 3 3 3 4 4 3 3 4 4
5 6 7 7 6 6 5 5 5 2 2 2 1 1 1 2 2 2 2 2 2 2 1 2 2 1 1 1 2 2 2 2 1 1 1 1 1 2 2 2 2 3 3 3 4 3 3 4 4
6 6 6 5 3 5 6 5 4 1 2 1 0 2 3 3 3 3 3 2 2 2 0 1 1 1 1 1 2 1 2 2 2 2 1 1 1 1 1 1 1 2 2 3 4 3 4 4 4
4 2 2 2 3 5 3 4 3 1 3 3 2 3 4 5 4 4 3 2 2 2 1 1 1 2 1 1 2 2 2 2 2 2 2 1 1 1 1 2 1 2 2 2 2 3 4 4 4
3 2 1 3 4 3 2 4 2 3 4 5 5 4 5 5 5 4 3 2 2 2 2 1 1 1 1 1 1 2 2 2 2 1 2 2 2 2 2 2 2 2 2 2 2 2 3 3 4
2 1 2 2 3 4 5 2 2 3 3 4 5 5 6 6 6 5 4 3 2 2 2 2 1 1 1 1 1 2 2 1 1 1 2 2 2 2 2 2 2 2 2 2 2 2 2 2 3
3 3 1 1 3 4 5 2 1 1 3 4 5 6 6 6 6 6 5 3 2 2 1 1 1 1 1 1 2 2 2 2 1 1 1 2 2 2 2 2 2 2 2 2 2 2 2 2 2
1 1 2 3 3 3 4 2 2 2 1 3 4 5 5 5 6 5 5 4 3 3 2 2 2 2 2 2 2 2 3 2 1 1 2 2 2 2 2 1 1 2 2 2 2 2 3 3 3
1 1 1 1 4 3 4 4 2 3 2 3 5 6 6 5 5 5 5 5 4 3 3 3 3 2 2 1 1 2 2 3 2 2 2 1 2 1 2 1 2 2 2 2 2 3 3 3 3
Wind_Direction
307 285 261 250 238 229 230 229 240 269 16 16 11 347 5 10 21 99 120 67 75 90 98 95 79 69 67 64 58 67 77 84 89 99 107 123 127 127 125 123 120 117 114 114 115 113 112 109 104
298 290 268 236 236 230 223 215 213 36 43 20 11 343 7 61 56 90 82 61 82 89 94 101 89 76 66 66 62 60 79 79 85 98 106 124 126 126 129 130 128 124 119 119 120 118 115 113 111
281 271 248 233 233 237 217 126 119 101 68 32 340 346 12 44 55 72 55 49 76 85 87 100 98 88 77 71 76 61 77 90 86 96 108 123 132 133 133 131 130 127 124 124 124 124 122 120 117
272 237 236 242 241 243 252 358 65 59 55 20 345 19 80 45 45 53 49 52 72 86 86 103 107 102 93 80 81 67 74 115 106 107 111 127 137 142 137 135 136 130 126 126 130 129 127 125 123
243 241 227 232 240 238 267 350 341 120 225 26 343 314 70 60 59 56 40 40 73 81 86 107 107 109 106 100 88 87 79 145 134 122 117 131 141 140 139 135 143 143 139 134 133 140 136 135 132
244 238 233 231 229 216 185 232 294 287 345 30 342 316 74 63 53 55 35 35 52 68 86 101 92 92 106 120 123 191 181 184 155 147 130 140 150 154 147 141 139 143 150 148 143 144 148 149 140
263 251 246 252 255 237 217 14 293 315 337 2 341 316 113 41 39 50 43 38 44 61 82 96 103 89 58 38 205 220 222 200 176 163 159 160 164 162 160 156 153 142 147 157 156 151 157 157 150
288 280 254 248 249 255 46 12 355 354 354 11 351 323 18 12 10 24 31 43 46 54 68 96 103 117 145 216 238 233 229 205 181 173 168 169 167 171 167 161 159 152 149 163 166 160 161 164 164
273 251 245 256 264 284 55 307 325 1 337 336 332 349 1 358 355 4 24 24 30 31 61 73 88 51 21 336 215 220 249 209 181 173 163 162 161 159 163 165 166 167 161 163 164 167 169 168 174
236 240 245 301 326 329 355 337 334 309 283 279 291 27 34 27 8 349 331 332 333 349 349 30 16 78 5 339 27 236 271 207 186 174 173 172 149 154 156 162 164 170 171 171 171 172 179 181 179
244 248 278 311 336 326 310 298 305 274 271 270 278 316 351 347 338 321 314 305 295 302 339 334 350 11 9 351 333 345 322 232 194 187 189 158 140 147 145 136 156 166 174 174 183 187 189 184 177
251 268 279 294 322 309 294 290 277 260 269 300 298 293 302 305 298 285 287 295 301 297 303 330 348 335 345 335 308 304 288 262 215 204 177 165 158 160 166 165 179 182 186 188 193 188 185 189 193
246 260 273 279 281 279 282 270 269 270 271 272 253 248 247 256 277 288 273 279 290 301 315 326 313 289 304 293 284 288 259 270 227 207 198 181 171 175 177 172 179 183 192 195 196 191 184 191 190
283 278 271 259 245 254 264 268 261 263 253 244 234 233 240 253 261 292 302 288 277 278 261 298 298 290 292 281 274 277 284 287 248 212 209 196 183 178 177 176 179 184 192 202 223 202 181 188 178
270 264 262 240 234 224 254 268 242 251 241 237 241 239 234 244 268 289 309 306 282 271 275 274 293 304 301 295 288 306 287 271 257 223 208 197 194 183 177 179 178 181 191 204 217 220 175 183 186
243 247 254 224 214 198 212 264 250 233 240 247 248 244 231 251 261 271 294 310 303 282 279 273 300 310 302 308 302 306 298 288 265 230 220 201 203 185 168 174 175 172 179 182 210 209 208 190 187
228 250 263 257 214 222 232 262 264 250 246 248 260 267 239 254 281 289 290 300 312 305 281 248 257 292 295 308 301 303 296 287 282 239 230 210 191 185 170 176 177 168 171 194 228 215 209 198 197
258 264 276 271 246 263 257 262 266 260 251 255 258 266 261 260 282 309 315 308 318 302 289 263 241 257 293 293 316 321 302 292 282 248 224 203 188 188 169 172 183 170 169 190 202 216 220 217 196
285 281 278 282 289 288 270 273 269 255 252 256 257 262 266 254 266 305 314 317 323 305 307 283 256 267 303 270 245 256 263 276 276 257 230 201 204 198 189 185 189 186 188 196 193 201 191 228 194
278 281 284 294 309 298 280 278 268 251 239 244 258 273 277 288 278 301 321 338 311 309 310 292 257 262 268 263 258 252 254 255 255 260 228 212 211 213 215 188 195 199 194 200 203 196 207 230 216
285 273 279 295 312 288 282 276 248 228 206 226 241 257 278 286 285 294 307 315 318 313 310 297 277 267 251 254 254 299 289 276 269 262 204 210 222 214 205 204 194 202 200 202 211 209 209 221 239
282 306 300 295 299 283 290 286 247 218 223 249 296 317 297 297 298 292 302 322 320 313 310 293 272 264 239 217 233 228 254 264 283 260 234 213 224 222 208 206 206 206 212 210 222 223 219 218 227
284 308 289 277 270 275 246 247 269 192 234 247 299 323 331 315 324 318 312 317 328 326 306 287 276 257 225 205 226 236 260 274 296 276 229 218 229 213 206 219 208 209 217 219 228 234 221 227 231
302 296 274 256 246 257 228 214 276 211 227 242 284 2 356 352 344 335 328 344 344 346 282 251 280 288 244 224 242 235 265 281 282 272 232 228 243 229 198 238 223 210 223 228 225 235 225 229 234
316 318 318 285 230 245 213 211 246 49 41 47 33 14 9 353 338 326 324 333 328 329 312 251 252 272 261 261 269 255 262 251 251 256 240 243 246 248 233 254 245 243 239 244 242 239 230 226 229
286 290 236 268 273 291 268 233 194 85 54 41 31 17 360 341 334 325 319 323 331 335 327 309 268 295 297 285 294 274 262 243 246 262 260 247 241 243 236 237 241 250 245 261 266 267 254 232 230
306 278 284 278 277 267 246 208 161 65 35 23 11 2 349 343 341 334 333 336 345 344 335 314 280 324 331 8 345 306 287 297 299 274 267 266 254 256 239 244 247 256 264 256 267 273 275 264 245
315 316 322 238 278 278 272 245 264 351 337 354 354 344 338 346 346 342 344 340 350 352 345 331 339 347 357 36 14 333 321 310 298 284 282 277 271 255 238 257 275 274 272 257 259 272 271 274 274
216 287 278 268 271 276 290 292 29 73 35 355 342 339 340 345 342 344 346 350 355 358 7 6 2 13 21 38 15 355 340 324 313 294 279 275 282 265 242 246 260 266 263 259 261 266 270 266 269
217 241 198 236 276 266 274 274 43 53 52 21 347 342 345 349 352 354 351 357 2 2 10 10 2 9 11 24 12 358 339 340 329 319 312 299 289 287 274 254 247 257 266 267 260 263 269 267 266
Height
1491 1493 1495 1497 1499 1498 1493 1485 1479 1481 1482 1485 1485 1486 1487 1491 1494 1504 1504 1501 1500 1500 1500 1501 1502 1503 1505 1505 1506 1507 1509 1510 1511 1512 1513 1514 1515 1515 1516 1517 1518 1518 1519 1520 1521 1521 1522 1523 1523
1491 1493 1496 1497 1498 1497 1491 1483 1483 1483 1485 1486 1487 1488 1488 1493 1496 1499 1500 1500 1500 1500 1500 1500 1501 1503 1504 1505 1506 1507 1508 1509 1510 1511 1512 1513 1514 1515 1515 1516 1517 1518 1519 1519 1520 1521 1522 1523 1523
1491 1493 1496 1494 1492 1491 1487 1482 1482 1484 1486 1487 1489 1490 1492 1495 1497 1498 1499 1499 1500 1499 1499 1500 1501 1502 1503 1504 1505 1506 1507 1508 1509 1510 1511 1512 1513 1514 1515 1515 1516 1517 1518 1519 1520 1520 1521 1522 1523
1492 1494 1494 1494 1490 1484 1483 1482 1483 1485 1487 1489 1490 1491 1493 1497 1498 1498 1498 1499 1499 1499 1499 1499 1500 1501 1502 1503 1504 1505 1506 1507 1508 1509 1510 1511 1512 1513 1514 1514 1515 1516 1517 1518 1519 1520 1520 1521 1522
1492 1493 1492 1491 1486 1484 1483 1484 1485 1486 1488 1490 1491 1492 1494 1497 1496 1497 1497 1498 1498 1498 1498 1499 1499 1500 1501 1502 1503 1504 1505 1506 1506 1507 1508 1509 1510 1511 1512 1513 1514 1515 1515 1516 1518 1519 1519 1520 1521
1492 1490 1491 1489 1484 1482 1483 1485 1486 1487 1488 1490 1492 1493 1495 1496 1495 1496 1497 1497 1498 1498 1497 1497 1498 1499 1500 1501 1501 1502 1503 1504 1505 1506 1507 1508 1509 1510 1511 1512 1512 1513 1514 1515 1516 1517 1518 1519 1520
1491 1488 1487 1484 1483 1482 1483 1485 1487 1488 1489 1491 1493 1493 1494 1495 1495 1495 1496 1497 1497 1497 1496 1496 1497 1497 1498 1499 1499 1500 1501 1502 1503 1504 1505 1506 1507 1508 1509 1510 1511 1512 1513 1514 1515 1516 1516 1517 1518
1489 1489 1485 1483 1484 1484 1485 1486 1488 1489 1490 1492 1493 1494 1494 1494 1494 1494 1495 1495 1495 1495 1495 1495 1495 1495 1496 1496 1497 1498 1499 1500 1501 1502 1503 1504 1505 1507 1508 1509 1509 1510 1511 1512 1513 1514 1515 1515 1516
1489 1491 1488 1484 1484 1484 1485 1486 1488 1489 1490 1491 1493 1494 1494 1493 1493 1493 1494 1494 1494 1493 1494 1494 1493 1493 1494 1494 1495 1496 1497 1498 1499 1500 1501 1502 1503 1504 1505 1506 1507 1508 1509 1510 1511 1512 1513 1514 1514
1489 1490 1485 1484 1484 1485 1486 1487 1488 1489 1489 1490 1491 1492 1492 1492 1492 1492 1492 1492 1491 1491 1491 1491 1492 1491 1491 1492 1492 1493 1494 1495 1496 1497 1498 1500 1501 1502 1503 1504 1505 1506 1507 1508 1508 1509 1510 1511 1512
1487 1486 1485 1485 1486 1486 1487 1488 1488 1489 1489 1489 1489 1490 1490 1490 1490 1490 1490 1491 1490 1490 1489 1489 1489 1489 1489 1489 1490 1490 1491 1492 1493 1495 1496 1497 1498 1499 1500 1501 1502 1503 1504 1505 1505 1506 1507 1508 1509
1486 1485 1486 1486 1487 1487 1488 1487 1488 1487 1488 1488 1488 1488 1488 1488 1488 1489 1489 1489 1488 1488 1487 1487 1487 1486 1486 1486 1487 1488 1488 1489 1490 1492 1493 1494 1495 1496 1497 1498 1499 1500 1501 1502 1503 1503 1504 1505 1507
1486 1486 1486 1486 1487 1487 1487 1486 1486 1484 1484 1485 1486 1486 1486 1486 1487 1487 1487 1486 1486 1485 1484 1484 1484 1484 1484 1484 1484 1485 1485 1486 1487 1488 1489 1491 1492 1493 1494 1495 1496 1497 1499 1499 1500 1501 1501 1502 1504
1485 1485 1485 1485 1485 1485 1485 1484 1485 1481 1482 1483 1483 1483 1484 1484 1485 1485 1484 1484 1483 1482 1482 1481 1481 1481 1481 1481 1481 1481 1481 1482 1484 1485 1486 1487 1489 1490 1491 1492 1493 1495 1495 1496 1497 1498 1498 1499 1500
1486 1485 1483 1481 1482 1483 1485 1483 1480 1479 1479 1480 1480 1480 1481 1481 1482 1482 1481 1481 1480 1480 1479 1479 1478 1478 1478 1478 1478 1479 1479 1480 1480 1482 1483 1484 1485 1486 1488 1489 1490 1491 1492 1493 1494 1495 1495 1495 1497
1484 1484 1483 1478 1479 1480 1485 1482 1476 1477 1477 1477 1477 1477 1478 1478 1478 1478 1478 1478 1477 1477 1476 1476 1476 1475 1475 1475 1475 1475 1475 1476 1477 1478 1479 1481 1482 1483 1484 1485 1487 1488 1489 1490 1491 1491 1492 1492 1493
1483 1484 1480 1478 1476 1477 1480 1478 1474 1474 1474 1474 1475 1475 1475 1475 1475 1475 1475 1474 1474 1473 1473 1472 1472 1472 1472 1472 1472 1472 1472 1473 1474 1475 1476 1477 1478 1479 1480 1481 1483 1484 1485 1486 1487 1488 1488 1488 1489
1485 1482 1479 1478 1476 1476 1476 1474 1472 1472 1471 1471 1471 1472 1472 1471 1471 1471 1471 1471 1470 1470 1470 1469 1469 1468 1468 1469 1469 1469 1470 1470 1470 1471 1472 1473 1474 1475 1476 1478 1479 1481 1482 1483 1484 1484 1485 1486 1485
1482 1481 1480 1477 1474 1475 1473 1470 1468 1468 1468 1467 1468 1468 1468 1469 1469 1469 1468 1467 1467 1467 1466 1466 1465 1465 1465 1465 1465 1465 1465 1466 1467 1467 1468 1470 1471 1472 1473 1474 1475 1477 1478 1479 1480 1481 1481 1482 1482
1481 1481 1480 1476 1474 1475 1472 1468 1464 1463 1463 1464 1464 1465 1465 1466 1466 1465 1465 1464 1464 1463 1463 1462 1462 1462 1461 1462 1463 1463 1462 1462 1463 1464 1465 1466 1467 1468 1470 1470 1471 1472 1474 1475 1476 1477 1478 1479 1479
1481 1481 1480 1479 1477 1473 1473 1467 1461 1458 1459 1460 1462 1462 1463 1463 1463 1462 1462 1461 1460 1460 1459 1459 1458 1458 1458 1459 1460 1460 1460 1460 1460 1461 1461 1463 1464 1465 1466 1466 1467 1468 1470 1471 1472 1473 1474 1475 1476
1483 1479 1479 1479 1482 1480 1475 1476 1460 1458 1458 1458 1459 1459 1459 1460 1460 1460 1459 1458 1457 1457 1456 1456 1456 1455 1455 1456 1456 1457 1457 1456 1456 1457 1458 1459 1460 1461 1462 1462 1463 1464 1466 1467 1468 1470 1471 1472 1471
1482 1479 1478 1478 1480 1482 1475 1477 1463 1457 1458 1458 1458 1458 1457 1457 1457 1457 1456 1455 1454 1454 1454 1453 1453 1453 1453 1453 1454 1454 1454 1453 1453 1454 1454 1455 1456 1457 1458 1458 1459 1460 1461 1463 1464 1465 1467 1468 1467
1481 1479 1477 1476 1480 1483 1470 1472 1464 1458 1456 1456 1456 1457 1456 1456 1455 1454 1453 1453 1452 1451 1451 1450 1450 1449 1450 1450 1451 1451 1451 1450 1450 1450 1451 1451 1452 1453 1453 1454 1455 1456 1457 1459 1460 1461 1462 1463 1463
1484 1486 1486 1483 1481 1474 1461 1465 1463 1456 1454 1455 1456 1456 1456 1455 1454 1452 1451 1450 1449 1449 1449 1448 1448 1447 1446 1447 1448 1448 1448 1447 1448 1447 1448 1448 1448 1449 1450 1450 1451 1452 1453 1454 1455 1456 1457 1458 1459
1486 1486 1491 1489 1480 1469 1462 1464 1460 1456 1456 1456 1456 1456 1455 1454 1452 1450 1449 1448 1447 1447 1446 1446 1445 1444 1444 1444 1445 1446 1446 1445 1445 1445 1445 1445 1446 1446 1447 1447 1448 1448 1449 1450 1451 1452 1453 1453 1454
1486 1487 1485 1488 1486 1482 1466 1457 1458 1456 1456 1456 1456 1455 1454 1452 1450 1448 1447 1446 1445 1445 1444 1444 1443 1442 1442 1442 1442 1443 1443 1443 1443 1443 1443 1443 1444 1444 1444 1445 1444 1445 1445 1446 1447 1447 1448 1449 1450
1487 1486 1488 1490 1487 1477 1461 1457 1461 1460 1459 1457 1456 1455 1453 1452 1449 1447 1446 1445 1444 1443 1442 1442 1441 1440 1440 1440 1441 1441 1440 1440 1440 1440 1440 1440 1441 1441 1441 1441 1441 1441 1441 1442 1443 1443 1444 1444 1445
1489 1489 1489 1487 1485 1483 1474 1467 1459 1459 1458 1458 1457 1455 1453 1451 1449 1447 1445 1444 1443 1441 1441 1440 1439 1438 1438 1438 1438 1438 1438 1438 1438 1438 1438 1438 1438 1438 1438 1438 1438 1438 1438 1439 1439 1439 1440 1440 1440
1487 1488 1490 1494 1490 1483 1482 1473 1458 1457 1457 1457 1457 1455 1453 1451 1449 1446 1444 1443 1442 1441 1440 1439 1438 1437 1437 1437 1437 1436 1436 1435 1435 1435 1436 1436 1436 1435 1435 1435 1435 1435 1435 1435 1435 1436 1436 1436 1436